RLU326 UUDL-ULLI

Flight info

Callsign RLU326
Flight time 1h 10m
Altitude 36000
Route K0802F360 DCT REKPA N869 GAKLU P164 ODATI T561 UDAPI DCT
Aircraft E145/M-SABDFGRW/S

Departure

Time 2026-04-15 14:28
Airport Golden Ring Yaroslavl International Airport (UUDL)

Arrival

Time 2026-04-15 15:39
Airport Pulkovo Airport (ULLI)
Time Latitude Longitude Altitude Speed Heading
2026-04-15 14:07 57.56361 40.17633 302 ft 0 kts 200°
2026-04-15 14:22 57.56361 40.17632 302 ft 0 kts 205°
2026-04-15 14:22 57.56359 40.17623 302 ft 2 kts 255°
2026-04-15 14:22 57.56377 40.17583 302 ft 5 kts 328°
2026-04-15 14:22 57.56412 40.17602 302 ft 7 kts 60°
2026-04-15 14:23 57.56452 40.17669 302 ft 8 kts
2026-04-15 14:23 57.56514 40.17629 302 ft 10 kts 333°
2026-04-15 14:23 57.56539 40.17518 303 ft 11 kts 249°
2026-04-15 14:23 57.56502 40.17375 303 ft 13 kts 242°
2026-04-15 14:24 57.56456 40.17214 302 ft 15 kts 242°
2026-04-15 14:24 57.56405 40.17025 302 ft 17 kts 243°
2026-04-15 14:24 57.56347 40.16809 301 ft 19 kts 243°
2026-04-15 14:24 57.56281 40.16566 300 ft 22 kts 242°
2026-04-15 14:25 57.56208 40.16287 299 ft 24 kts 244°
2026-04-15 14:25 57.56128 40.15987 297 ft 27 kts 243°
2026-04-15 14:25 57.56039 40.15664 295 ft 29 kts 243°
2026-04-15 14:25 57.55946 40.15313 292 ft 31 kts 243°
2026-04-15 14:26 57.55848 40.14942 290 ft 32 kts 243°
2026-04-15 14:26 57.55745 40.14555 289 ft 33 kts 243°
2026-04-15 14:26 57.55638 40.14158 288 ft 34 kts 243°
2026-04-15 14:26 57.55572 40.13907 288 ft 11 kts 243°
2026-04-15 14:27 57.55532 40.13759 286 ft 14 kts 243°
2026-04-15 14:27 57.55479 40.13604 284 ft 8 kts 200°
2026-04-15 14:27 57.55470 40.13560 283 ft 6 kts 15°
2026-04-15 14:27 57.55496 40.13628 285 ft 6 kts 64°
2026-04-15 14:28 57.55562 40.13881 287 ft 54 kts 64°
2026-04-15 14:28 57.55840 40.14921 290 ft 121 kts 64°
2026-04-15 14:28 57.56272 40.16513 528 ft 146 kts 66°
2026-04-15 14:28 57.56752 40.18225 1124 ft 155 kts 64°
2026-04-15 14:29 57.57257 40.19890 1990 ft 148 kts 65°
2026-04-15 14:29 57.57855 40.21395 2698 ft 156 kts 40°
2026-04-15 14:29 57.59002 40.21814 3101 ft 194 kts 352°
2026-04-15 14:29 57.60175 40.20309 3673 ft 222 kts 304°
2026-04-15 14:30 57.60566 40.17615 4521 ft 224 kts 264°
2026-04-15 14:30 57.60383 40.14800 5558 ft 214 kts 259°
2026-04-15 14:30 57.60185 40.12093 6232 ft 225 kts 259°
2026-04-15 14:30 57.59820 40.09042 6498 ft 255 kts 253°
2026-04-15 14:31 57.59322 40.05759 7150 ft 268 kts 251°
2026-04-15 14:31 57.58741 40.02526 8079 ft 267 kts 248°
2026-04-15 14:31 57.58091 39.99295 8925 ft 270 kts 248°
2026-04-15 14:31 57.57525 39.95948 9653 ft 278 kts 252°
2026-04-15 14:32 57.57000 39.92501 10404 ft 282 kts 252°
2026-04-15 14:32 57.56438 39.88983 11013 ft 286 kts 251°
2026-04-15 14:32 57.55868 39.85434 11643 ft 290 kts 253°
2026-04-15 14:32 57.55330 39.81851 12327 ft 292 kts 250°
2026-04-15 14:33 57.54713 39.78136 12561 ft 310 kts 251°
2026-04-15 14:33 57.54094 39.74228 12804 ft 325 kts 252°
2026-04-15 14:33 57.53440 39.70138 13184 ft 336 kts 251°
2026-04-15 14:33 57.52768 39.65943 13742 ft 340 kts 251°
2026-04-15 14:34 57.52095 39.61747 14297 ft 343 kts 251°
2026-04-15 14:34 57.51416 39.57520 14825 ft 346 kts 251°
2026-04-15 14:34 57.50724 39.53229 15367 ft 349 kts 251°
2026-04-15 14:34 57.50023 39.48891 15890 ft 351 kts 251°
2026-04-15 14:35 57.49315 39.44519 16420 ft 354 kts 251°
2026-04-15 14:35 57.48609 39.40174 16926 ft 356 kts 251°
2026-04-15 14:35 57.47889 39.35748 17451 ft 358 kts 251°
2026-04-15 14:35 57.47172 39.31356 17922 ft 361 kts 250°
2026-04-15 14:36 57.46439 39.26878 18466 ft 361 kts 250°
2026-04-15 14:36 57.45710 39.22438 19049 ft 360 kts 250°
2026-04-15 14:36 57.44983 39.18015 19611 ft 360 kts 251°
2026-04-15 14:36 57.44260 39.13628 20172 ft 359 kts 251°
2026-04-15 14:37 57.43525 39.09182 20727 ft 359 kts 251°
2026-04-15 14:37 57.42802 39.04820 21286 ft 358 kts 251°
2026-04-15 14:37 57.42070 39.00413 21831 ft 358 kts 251°
2026-04-15 14:37 57.41341 38.96038 22364 ft 358 kts 251°
2026-04-15 14:38 57.40601 38.91605 22906 ft 357 kts 251°
2026-04-15 14:38 57.39873 38.87252 23449 ft 357 kts 251°
2026-04-15 14:38 57.39140 38.82887 23955 ft 357 kts 251°
2026-04-15 14:38 57.38403 38.78502 24505 ft 356 kts 251°
2026-04-15 14:39 57.37672 38.74168 25093 ft 353 kts 251°
2026-04-15 14:39 57.36940 38.69838 25640 ft 352 kts 252°
2026-04-15 14:39 57.36220 38.65585 26188 ft 350 kts 252°
2026-04-15 14:39 57.35484 38.61251 26729 ft 349 kts 252°
2026-04-15 14:40 57.34760 38.57000 27272 ft 347 kts 252°
2026-04-15 14:40 57.34031 38.52727 27797 ft 345 kts 252°
2026-04-15 14:40 57.33308 38.48502 28302 ft 344 kts 252°
2026-04-15 14:40 57.32585 38.44282 28827 ft 342 kts 252°
2026-04-15 14:41 57.31870 38.40122 29355 ft 340 kts 252°
2026-04-15 14:41 57.31152 38.35954 29852 ft 339 kts 252°
2026-04-15 14:41 57.30456 38.31855 30338 ft 338 kts 252°
2026-04-15 14:41 57.29666 38.27826 30803 ft 336 kts 246°
2026-04-15 14:42 57.28814 38.23797 31264 ft 334 kts 248°
2026-04-15 14:42 57.28001 38.19844 31707 ft 333 kts 248°
2026-04-15 14:42 57.27185 38.15840 32156 ft 332 kts 248°
2026-04-15 14:42 57.26375 38.11855 32606 ft 330 kts 248°
2026-04-15 14:43 57.25581 38.07940 33042 ft 329 kts 249°
2026-04-15 14:43 57.24784 38.03985 33457 ft 327 kts 247°
2026-04-15 14:43 57.23990 38.00130 33856 ft 326 kts 248°
2026-04-15 14:43 57.23185 37.96204 34253 ft 326 kts 247°
2026-04-15 14:44 57.22393 37.92344 34620 ft 325 kts 248°
2026-04-15 14:44 57.21592 37.88440 35005 ft 324 kts 247°
2026-04-15 14:44 57.20806 37.84621 35335 ft 323 kts 248°
2026-04-15 14:44 57.20009 37.80751 35594 ft 323 kts 247°
2026-04-15 14:45 57.19210 37.76878 35823 ft 323 kts 247°
2026-04-15 14:45 57.18414 37.73031 36040 ft 324 kts 247°
2026-04-15 14:45 57.17647 37.69100 36207 ft 327 kts 253°
2026-04-15 14:45 57.17255 37.64977 36245 ft 337 kts 265°
2026-04-15 14:46 57.17322 37.60584 36246 ft 347 kts 277°
2026-04-15 14:46 57.17874 37.56213 36248 ft 353 kts 289°
2026-04-15 14:46 57.18888 37.52081 36242 ft 359 kts 297°
2026-04-15 14:47 57.20962 37.43620 36229 ft 370 kts 292°
2026-04-15 14:47 57.22893 37.34731 36230 ft 380 kts 290°
2026-04-15 14:48 57.24840 37.25577 36231 ft 389 kts 290°
2026-04-15 14:48 57.26817 37.16225 36228 ft 398 kts 290°
2026-04-15 14:49 57.28831 37.06644 36232 ft 406 kts 290°
2026-04-15 14:49 57.30883 36.96841 36224 ft 414 kts 290°
2026-04-15 14:50 57.32964 36.86851 36224 ft 421 kts 290°
2026-04-15 14:50 57.35061 36.76732 36226 ft 426 kts 290°
2026-04-15 14:51 57.37193 36.66392 36221 ft 432 kts 290°
2026-04-15 14:51 57.39321 36.56021 36220 ft 436 kts 290°
2026-04-15 14:52 57.41465 36.45517 36228 ft 437 kts 290°
2026-04-15 14:52 57.43599 36.35004 36224 ft 437 kts 290°
2026-04-15 14:53 57.45728 36.24461 36223 ft 437 kts 289°
2026-04-15 14:53 57.47859 36.13851 36219 ft 438 kts 289°
2026-04-15 14:54 57.49969 36.03329 36224 ft 438 kts 289°
2026-04-15 14:54 57.52093 35.92726 36217 ft 439 kts 289°
2026-04-15 14:55 57.54211 35.82090 36220 ft 439 kts 289°
2026-04-15 14:55 57.56307 35.71512 36218 ft 440 kts 289°
2026-04-15 14:56 57.58410 35.60838 36223 ft 440 kts 289°
2026-04-15 14:56 57.60506 35.50178 36228 ft 441 kts 290°
2026-04-15 14:57 57.62707 35.39523 36218 ft 443 kts 290°
2026-04-15 14:57 57.64921 35.28711 36214 ft 445 kts 289°
2026-04-15 14:58 57.67125 35.17916 36228 ft 447 kts 289°
2026-04-15 14:58 57.69312 35.07096 36223 ft 450 kts 289°
2026-04-15 14:59 57.71447 34.96162 36227 ft 450 kts 284°
2026-04-15 14:59 57.72985 34.84853 36226 ft 450 kts 282°
2026-04-15 15:00 57.74507 34.73556 36231 ft 450 kts 282°
2026-04-15 15:00 57.76033 34.62161 36226 ft 450 kts 282°
2026-04-15 15:01 57.77531 34.50886 36225 ft 450 kts 282°
2026-04-15 15:01 57.79031 34.39516 36229 ft 448 kts 282°
2026-04-15 15:02 57.80508 34.28227 36232 ft 447 kts 281°
2026-04-15 15:02 57.81969 34.16980 36232 ft 445 kts 281°
2026-04-15 15:03 57.83417 34.05742 36229 ft 444 kts 281°
2026-04-15 15:03 57.84854 33.94507 36224 ft 442 kts 281°
2026-04-15 15:04 57.86326 33.83357 36224 ft 442 kts 285°
2026-04-15 15:04 57.89045 33.73067 36227 ft 445 kts 304°
2026-04-15 15:05 57.93285 33.64675 36235 ft 445 kts 318°
2026-04-15 15:05 57.97724 33.56624 36229 ft 444 kts 314°
2026-04-15 15:06 58.04220 33.44313 36233 ft 443 kts 314°
2026-04-15 15:06 58.08520 33.36107 36232 ft 443 kts 314°
2026-04-15 15:07 58.12882 33.27753 36230 ft 449 kts 313°
2026-04-15 15:07 58.17559 33.19838 36218 ft 454 kts 323°
2026-04-15 15:08 58.22597 33.12622 36212 ft 458 kts 322°
2026-04-15 15:08 58.27674 33.05275 36220 ft 462 kts 322°
2026-04-15 15:09 58.32750 32.97900 36217 ft 461 kts 322°
2026-04-15 15:09 58.37787 32.90552 36225 ft 459 kts 322°
2026-04-15 15:10 58.42853 32.83136 36219 ft 457 kts 321°
2026-04-15 15:10 58.47863 32.75774 36219 ft 456 kts 321°
2026-04-15 15:11 58.52848 32.68422 36225 ft 454 kts 321°
2026-04-15 15:11 58.57803 32.61087 36227 ft 452 kts 321°
2026-04-15 15:12 58.62725 32.53773 36126 ft 456 kts 321°
2026-04-15 15:12 58.65212 32.50071 35810 ft 450 kts 321°
2026-04-15 15:12 58.67684 32.46381 35456 ft 447 kts 321°
2026-04-15 15:13 58.70113 32.42748 34971 ft 447 kts 321°
2026-04-15 15:13 58.72561 32.39082 34417 ft 446 kts 321°
2026-04-15 15:13 58.75005 32.35413 33867 ft 445 kts 321°
2026-04-15 15:13 58.77456 32.31728 33309 ft 445 kts 320°
2026-04-15 15:14 58.79882 32.28073 32757 ft 445 kts 320°
2026-04-15 15:14 58.82326 32.24383 32215 ft 451 kts 320°
2026-04-15 15:14 58.84804 32.20637 31663 ft 452 kts 320°
2026-04-15 15:14 58.87265 32.16910 31108 ft 449 kts 320°
2026-04-15 15:15 58.89703 32.13210 30558 ft 447 kts 320°
2026-04-15 15:15 58.92109 32.09553 30018 ft 445 kts 320°
2026-04-15 15:15 58.94548 32.05839 29466 ft 443 kts 320°
2026-04-15 15:15 58.96944 32.02183 28922 ft 441 kts 320°
2026-04-15 15:16 58.99340 31.98520 28379 ft 439 kts 320°
2026-04-15 15:16 59.01703 31.94902 27842 ft 435 kts 320°
2026-04-15 15:16 59.04062 31.91283 27295 ft 428 kts 320°
2026-04-15 15:16 59.06370 31.87735 26754 ft 422 kts 320°
2026-04-15 15:17 59.08659 31.84204 26212 ft 416 kts 319°
2026-04-15 15:17 59.10709 31.80388 25643 ft 414 kts 309°
2026-04-15 15:17 59.12440 31.75902 25332 ft 407 kts 301°
2026-04-15 15:17 59.14005 31.71365 24994 ft 404 kts 301°
2026-04-15 15:18 59.15550 31.66881 24601 ft 403 kts 301°
2026-04-15 15:18 59.17106 31.62352 24225 ft 401 kts 301°
2026-04-15 15:18 59.18647 31.57857 23850 ft 399 kts 301°
2026-04-15 15:18 59.20168 31.53416 23360 ft 396 kts 301°
2026-04-15 15:19 59.21697 31.48939 22812 ft 394 kts 301°
2026-04-15 15:19 59.23190 31.44560 22324 ft 391 kts 301°
2026-04-15 15:19 59.24690 31.40150 21814 ft 388 kts 301°
2026-04-15 15:19 59.26159 31.35825 21320 ft 385 kts 301°
2026-04-15 15:20 59.27632 31.31482 20841 ft 382 kts 300°
2026-04-15 15:20 59.29086 31.27185 20385 ft 378 kts 300°
2026-04-15 15:20 59.30522 31.22934 19900 ft 377 kts 300°
2026-04-15 15:20 59.31960 31.18667 19516 ft 375 kts 300°
2026-04-15 15:21 59.33377 31.14459 19160 ft 372 kts 300°
2026-04-15 15:21 59.34809 31.10194 18765 ft 370 kts 300°
2026-04-15 15:21 59.36207 31.06026 18385 ft 369 kts 300°
2026-04-15 15:21 59.37606 31.01849 18012 ft 366 kts 300°
2026-04-15 15:22 59.38995 30.97690 17530 ft 364 kts 300°
2026-04-15 15:22 59.40370 30.93564 17042 ft 364 kts 300°
2026-04-15 15:22 59.41745 30.89434 16609 ft 360 kts 300°
2026-04-15 15:22 59.43082 30.85406 16106 ft 357 kts 300°
2026-04-15 15:23 59.44447 30.81290 15511 ft 356 kts 300°
2026-04-15 15:23 59.45783 30.77252 14974 ft 354 kts 300°
2026-04-15 15:23 59.47101 30.73266 14441 ft 351 kts 300°
2026-04-15 15:23 59.48418 30.69274 13870 ft 347 kts 300°
2026-04-15 15:24 59.49732 30.65285 13221 ft 345 kts 300°
2026-04-15 15:24 59.51002 30.61421 12809 ft 336 kts 300°
2026-04-15 15:24 59.52251 30.57618 12483 ft 324 kts 301°
2026-04-15 15:24 59.53447 30.53972 12323 ft 310 kts 300°
2026-04-15 15:25 59.54543 30.50420 11979 ft 301 kts 291°
2026-04-15 15:25 59.55192 30.46536 11534 ft 296 kts 283°
2026-04-15 15:25 59.55776 30.42696 11096 ft 294 kts 283°
2026-04-15 15:25 59.56355 30.38868 10671 ft 293 kts 283°
2026-04-15 15:26 59.56932 30.35047 10210 ft 291 kts 283°
2026-04-15 15:26 59.57505 30.31250 9944 ft 282 kts 283°
2026-04-15 15:26 59.58050 30.27631 9881 ft 267 kts 282°
2026-04-15 15:26 59.58566 30.24189 9626 ft 263 kts 282°
2026-04-15 15:27 59.59085 30.20723 9269 ft 263 kts 283°
2026-04-15 15:27 59.59599 30.17280 8924 ft 262 kts 283°
2026-04-15 15:27 59.60111 30.13846 8578 ft 261 kts 283°
2026-04-15 15:27 59.60621 30.10420 8268 ft 259 kts 283°
2026-04-15 15:28 59.61122 30.07047 7941 ft 258 kts 283°
2026-04-15 15:28 59.61627 30.03643 7633 ft 256 kts 283°
2026-04-15 15:28 59.62123 30.00285 7310 ft 255 kts 283°
2026-04-15 15:28 59.62617 29.96945 7019 ft 253 kts 283°
2026-04-15 15:29 59.63101 29.93657 6713 ft 252 kts 284°
2026-04-15 15:29 59.63592 29.90318 6413 ft 250 kts 284°
2026-04-15 15:29 59.64070 29.87060 6089 ft 249 kts 284°
2026-04-15 15:29 59.64546 29.83810 5780 ft 247 kts 285°
2026-04-15 15:30 59.65022 29.80555 5476 ft 247 kts 285°
2026-04-15 15:30 59.65498 29.77290 5184 ft 245 kts 284°
2026-04-15 15:30 59.65964 29.74087 4913 ft 243 kts 285°
2026-04-15 15:30 59.66427 29.70900 4592 ft 243 kts 285°
2026-04-15 15:31 59.66894 29.67684 4277 ft 242 kts 285°
2026-04-15 15:31 59.67575 29.64644 4110 ft 245 kts 311°
2026-04-15 15:31 59.68927 29.62805 4048 ft 237 kts 346°
2026-04-15 15:31 59.70539 29.62804 3878 ft 230 kts 21°
2026-04-15 15:32 59.71863 29.64414 3694 ft 226 kts 40°
2026-04-15 15:32 59.73113 29.66312 3522 ft 226 kts 40°
2026-04-15 15:32 59.74352 29.68227 3354 ft 225 kts 40°
2026-04-15 15:32 59.75573 29.70129 3250 ft 227 kts 40°
2026-04-15 15:33 59.76805 29.72049 3213 ft 224 kts 40°
2026-04-15 15:33 59.78037 29.73974 3132 ft 224 kts 40°
2026-04-15 15:33 59.79240 29.75953 3043 ft 222 kts 50°
2026-04-15 15:33 59.80047 29.78517 2952 ft 220 kts 63°
2026-04-15 15:34 59.80788 29.81167 2868 ft 220 kts 63°
2026-04-15 15:34 59.81523 29.83804 2796 ft 219 kts 63°
2026-04-15 15:34 59.82259 29.86445 2666 ft 218 kts 63°
2026-04-15 15:34 59.82989 29.89072 2520 ft 219 kts 63°
2026-04-15 15:35 59.83714 29.91699 2489 ft 213 kts 65°
2026-04-15 15:35 59.83947 29.94401 2478 ft 195 kts 99°
2026-04-15 15:35 59.83640 29.96916 2469 ft 182 kts 102°
2026-04-15 15:35 59.83322 29.99331 2408 ft 181 kts 107°
2026-04-15 15:36 59.82963 30.01702 2217 ft 172 kts 106°
2026-04-15 15:36 59.82639 30.03889 1976 ft 163 kts 106°
2026-04-15 15:36 59.82333 30.05972 1750 ft 150 kts 106°
2026-04-15 15:36 59.82056 30.07860 1547 ft 132 kts 105°
2026-04-15 15:37 59.81806 30.09560 1386 ft 126 kts 105°
2026-04-15 15:37 59.81563 30.11212 1216 ft 123 kts 105°
2026-04-15 15:37 59.81324 30.12838 1050 ft 123 kts 104°
2026-04-15 15:37 59.81088 30.14481 888 ft 124 kts 104°
2026-04-15 15:38 59.80848 30.16112 708 ft 123 kts 105°
2026-04-15 15:38 59.80605 30.17727 542 ft 121 kts 106°
2026-04-15 15:38 59.80364 30.19333 377 ft 122 kts 104°
2026-04-15 15:38 59.80117 30.20994 222 ft 126 kts 104°
2026-04-15 15:39 59.79874 30.22636 102 ft 116 kts 104°
2026-04-15 15:39 59.79696 30.23843 84 ft 51 kts 107°
2026-04-15 15:39 59.79615 30.24386 84 ft 39 kts 105°
2026-04-15 15:39 59.79560 30.24762 84 ft 19 kts 107°
2026-04-15 15:40 59.79519 30.25031 84 ft 21 kts 106°
2026-04-15 15:40 59.79491 30.25332 84 ft 23 kts 94°
2026-04-15 15:40 59.79507 30.25661 84 ft 23 kts 75°
2026-04-15 15:40 59.79530 30.25830 84 ft 6 kts 74°
2026-04-15 15:41 59.79535 30.25867 84 ft 7 kts 74°
2026-04-15 15:41 59.79561 30.25969 84 ft 9 kts 30°
2026-04-15 15:41 59.79596 30.26003 84 ft 4 kts 32°
2026-04-15 15:41 59.79608 30.26073 84 ft 6 kts 101°
2026-04-15 15:42 59.79596 30.26166 84 ft 3 kts 107°
2026-04-15 15:42 59.79594 30.26178 84 ft 0 kts 107°
2026-04-15 15:42 59.79594 30.26179 84 ft 0 kts 107°